Location: American Medical Response
(33.3472°N, 96.5511°W)
Time: 12:56:33
(UTC+00:00)

SJ 16-02 - Pass Details

Date: 08 December 2021
Orbit: 605 x 616 km, 75.0° (Epoch: 23 January)

Event Time Altitude Azimuth Distance (km) Brightness Sun altitude
Rises 11:59:18 0° 212° (SSW) 2,849 4.6 -16.0°
Reaches altitude 10° 12:01:39 10° 220° (SW) 1,948 3.7 -15.6°
Maximum altitude 12:05:42 38° 289° (WNW) 925 1.7 -14.8°
Drops below altitude 10° 12:09:47 10° 358° (N) 1,956 3.7 -13.9°
Sets 12:12:09 0° 7° (N) 2,862 4.7 -13.5°
